Time,TemperatureF,DewpointF,PressureIn,WindDirection,WindDirectionDegrees,WindSpeedMPH,WindSpeedGustMPH,Humidity,HourlyPrecipIn,Conditions,Clouds,dailyrainin,SoftwareType,DateUTC
2013-02-26 10:20:00,30.3,28.8,29.84,East,86,7.0,7.0,94,0.04,,,0.07,Wunderground v.1.15,2013-02-26 15:20:00,
2013-02-26 10:30:00,30.7,29.2,29.84,ESE,102,6.0,6.0,94,0.04,,,0.07,Wunderground v.1.15,2013-02-26 15:30:00,
2013-02-26 10:35:00,30.8,29.3,29.83,ESE,123,6.0,6.0,94,0.00,,,0.07,Wunderground v.1.15,2013-02-26 15:35:00,
2013-02-26 10:40:00,30.8,29.3,29.83,ENE,61,6.0,6.0,94,0.00,,,0.07,Wunderground v.1.15,2013-02-26 15:40:00,
2013-02-26 10:50:00,30.9,29.4,29.82,SE,124,6.0,6.0,94,0.00,,,0.07,Wunderground v.1.15,2013-02-26 15:50:00,
2013-02-26 11:00:00,31.3,29.8,29.80,NE,46,5.0,5.0,94,0.00,,,0.07,Wunderground v.1.15,2013-02-26 16:00:00,
2013-02-26 11:10:00,31.7,30.2,29.80,NE,46,5.0,17.0,94,0.00,,,0.07,Wunderground v.1.15,2013-02-26 16:10:00,
2013-02-26 11:20:00,32.0,30.7,29.79,NE,46,5.0,5.0,95,0.00,,,0.07,Wunderground v.1.15,2013-02-26 16:20:00,
2013-02-26 11:30:00,32.1,30.6,29.78,ESE,110,4.0,4.0,94,0.00,,,0.07,Wunderground v.1.15,2013-02-26 16:30:00,
2013-02-26 11:40:00,32.3,31.0,29.78,NE,48,4.0,17.0,95,0.00,,,0.07,Wunderground v.1.15,2013-02-26 16:40:00,
2013-02-26 11:50:00,32.5,31.2,29.76,NE,48,4.0,4.0,95,0.00,,,0.07,Wunderground v.1.15,2013-02-26 16:50:00,
2013-02-26 12:00:00,32.5,31.2,29.76,NE,49,4.0,17.0,95,0.00,,,0.07,Wunderground v.1.15,2013-02-26 17:00:00,
2013-02-26 12:10:00,32.6,31.3,29.75,NE,48,4.0,4.0,95,0.00,,,0.07,Wunderground v.1.15,2013-02-26 17:10:00,
2013-02-26 12:20:00,32.7,31.4,29.74,NE,49,4.0,5.0,95,0.00,,,0.07,Wunderground v.1.15,2013-02-26 17:20:00,
2013-02-26 12:30:00,32.8,31.5,29.74,NE,49,4.0,4.0,95,0.00,,,0.07,Wunderground v.1.15,2013-02-26 17:30:00,
2013-02-26 12:40:00,32.7,31.2,29.74,NE,49,4.0,4.0,94,0.00,,,0.07,Wunderground v.1.15,2013-02-26 17:40:00,
2013-02-26 12:50:00,32.8,31.5,29.73,NE,48,2.0,2.0,95,0.00,,,0.07,Wunderground v.1.15,2013-02-26 17:50:00,
2013-02-26 13:00:00,32.8,31.3,29.72,NE,48,0.0,0.0,94,0.00,,,0.07,Wunderground v.1.15,2013-02-26 18:00:00,
2013-02-26 13:10:00,32.9,31.6,29.71,NE,48,0.0,14.0,95,0.00,,,0.07,Wunderground v.1.15,2013-02-26 18:10:00,
2013-02-26 13:20:00,32.8,31.3,29.70,NE,48,0.0,14.0,94,0.00,,,0.07,Wunderground v.1.15,2013-02-26 18:20:00,
2013-02-26 13:30:00,32.9,31.6,29.69,NE,48,0.0,14.0,95,0.00,,,0.07,Wunderground v.1.15,2013-02-26 18:30:00,
2013-02-26 13:40:00,32.9,31.6,29.68,NE,48,0.0,14.0,95,0.00,,,0.07,Wunderground v.1.15,2013-02-26 18:40:00,
2013-02-26 13:50:00,33.1,31.8,29.67,NE,49,0.0,14.0,95,0.00,,,0.07,Wunderground v.1.15,2013-02-26 18:50:00,
2013-02-26 14:00:00,33.3,32.0,29.66,NE,48,0.0,14.0,95,0.00,,,0.07,Wunderground v.1.15,2013-02-26 19:00:00,
2013-02-26 14:10:00,33.3,32.0,29.65,NE,49,0.0,0.0,95,0.00,,,0.07,Wunderground v.1.15,2013-02-26 19:10:00,
2013-02-26 14:20:00,33.4,32.1,29.65,NE,49,0.0,0.0,95,0.00,,,0.07,Wunderground v.1.15,2013-02-26 19:20:00,
2013-02-26 14:30:00,33.4,32.1,29.63,NE,49,0.0,0.0,95,0.00,,,0.07,Wunderground v.1.15,2013-02-26 19:30:00,
2013-02-26 14:40:00,33.4,32.1,29.62,NE,49,0.0,0.0,95,0.00,,,0.07,Wunderground v.1.15,2013-02-26 19:40:00,
2013-02-26 14:50:00,33.3,32.0,29.61,NE,49,0.0,0.0,95,0.00,,,0.07,Wunderground v.1.15,2013-02-26 19:50:00,
2013-02-26 15:00:00,33.5,32.2,29.61,NE,48,0.0,0.0,95,0.00,,,0.07,Wunderground v.1.15,2013-02-26 20:00:00,
2013-02-26 15:10:00,33.5,32.2,29.60,NE,48,0.0,9.0,95,0.00,,,0.07,Wunderground v.1.15,2013-02-26 20:10:00,
2013-02-26 15:25:00,33.4,32.1,29.58,NE,49,0.0,9.0,95,0.00,,,0.07,Wunderground v.1.15,2013-02-26 20:25:00,
2013-02-26 15:30:00,33.5,32.2,29.59,NE,49,0.0,9.0,95,0.00,,,0.07,Wunderground v.1.15,2013-02-26 20:30:00,
2013-02-26 15:40:00,33.6,32.3,29.59,NE,49,0.0,9.0,95,0.00,,,0.07,Wunderground v.1.15,2013-02-26 20:40:00,
2013-02-26 15:50:00,33.6,32.3,29.59,NE,50,0.0,9.0,95,0.00,,,0.07,Wunderground v.1.15,2013-02-26 20:50:00,
2013-02-26 16:00:00,33.7,32.4,29.58,NE,50,0.0,9.0,95,0.00,,,0.07,Wunderground v.1.15,2013-02-26 21:00:00,
2013-02-26 16:10:00,33.7,32.4,29.59,NE,49,0.0,0.0,95,0.00,,,0.08,Wunderground v.1.15,2013-02-26 21:10:00,
2013-02-26 16:20:00,33.8,32.5,29.60,NE,50,0.0,0.0,95,0.00,,,0.08,Wunderground v.1.15,2013-02-26 21:20:00,
2013-02-26 16:30:00,33.9,32.6,29.59,NE,50,0.0,0.0,95,0.00,,,0.08,Wunderground v.1.15,2013-02-26 21:30:00,
2013-02-26 16:40:00,33.9,32.6,29.59,NE,50,0.0,0.0,95,0.00,,,0.09,Wunderground v.1.15,2013-02-26 21:40:00,
2013-02-26 16:50:00,33.9,32.6,29.59,NE,50,0.0,0.0,95,0.00,,,0.09,Wunderground v.1.15,2013-02-26 21:50:00,
2013-02-26 21:30:00,34.0,33.2,29.59,SE,135,0.0,8.0,97,0.00,,,0.12,Wunderground v.1.15,2013-02-27 02:30:00,
2013-02-26 21:40:00,34.1,33.3,29.59,SE,135,0.0,8.0,97,0.00,,,0.12,Wunderground v.1.15,2013-02-27 02:40:00,
2013-02-26 21:50:00,34.1,33.3,29.58,SE,135,0.0,8.0,97,0.00,,,0.12,Wunderground v.1.15,2013-02-27 02:50:00,
2013-02-26 22:00:00,34.5,33.7,29.58,NNW,329,0.0,8.0,97,0.00,,,0.13,Wunderground v.1.15,2013-02-27 03:00:00,